QPF
0.00 0.00 0.00 0.00 0.00 0.00 0.00 0.00 0.00 0.00 0.00 0.00 0.00 0.00 0.00 0.00 0.00 0.00 0.00 0.00 0.00 0.00 0.00 0.00 0.00 0.00 0.00 0.00 0.00 0.00 0.00 0.00 0.00 0.00 0.00 0.00 0.00 0.00 0.00 0.00 0.00 0.00 0.00 0.00
0.00 0.00 0.00 0.00 0.00 0.00 0.00 0.00 0.00 0.00 0.00 0.00 0.00 0.00 0.00 0.00 0.00 0.00 0.00 0.00 0.00 0.00 0.00 0.00 0.00 0.00 0.00 0.00 0.00 0.00 0.00 0.00 0.00 0.00 0.00 0.00 0.00 0.00 0.00 0.00 0.00 0.00 0.00 0.01
0.00 0.00 0.00 0.00 0.00 0.00 0.00 0.00 0.00 0.00 0.00 0.00 0.00 0.00 0.00 0.00 0.00 0.00 0.00 0.00 0.00 0.00 0.00 0.00 0.00 0.00 0.00 0.00 0.00 0.00 0.00 0.00 0.00 0.00 0.00 0.00 0.00 0.00 0.00 0.00 0.00 0.00 0.00 0.00
0.00 0.00 0.00 0.00 0.00 0.00 0.00 0.00 0.00 0.00 0.00 0.00 0.00 0.00 0.00 0.00 0.00 0.00 0.00 0.00 0.00 0.00 0.00 0.00 0.00 0.00 0.00 0.00 0.00 0.00 0.00 0.00 0.00 0.00 0.00 0.00 0.00 0.00 0.00 0.00 0.00 0.00 0.00 0.00
0.00 0.00 0.00 0.00 0.00 0.00 0.00 0.00 0.00 0.00 0.00 0.00 0.00 0.00 0.00 0.00 0.00 0.00 0.00 0.00 0.00 0.00 0.00 0.00 0.00 0.00 0.00 0.00 0.00 0.00 0.00 0.00 0.00 0.00 0.00 0.00 0.00 0.00 0.00 0.00 0.00 0.00 0.00 0.00
0.00 0.00 0.00 0.00 0.00 0.00 0.00 0.00 0.00 0.00 0.00 0.00 0.00 0.00 0.00 0.00 0.00 0.00 0.00 0.00 0.00 0.00 0.00 0.00 0.00 0.00 0.00 0.00 0.00 0.00 0.00 0.00 0.00 0.00 0.00 0.00 0.00 0.00 0.00 0.00 0.00 0.00 0.00 0.00
0.00 0.00 0.00 0.00 0.00 0.00 0.00 0.00 0.00 0.00 0.00 0.00 0.00 0.00 0.00 0.00 0.00 0.00 0.00 0.00 0.00 0.00 0.00 0.00 0.00 0.00 0.00 0.00 0.00 0.00 0.00 0.00 0.00 0.00 0.00 0.00 0.00 0.00 0.00 0.00 0.00 0.00 0.00 0.00
0.00 0.00 0.00 0.00 0.00 0.00 0.00 0.00 0.00 0.00 0.00 0.00 0.00 0.00 0.00 0.00 0.00 0.00 0.00 0.00 0.00 0.00 0.00 0.00 0.00 0.00 0.00 0.00 0.00 0.00 0.00 0.00 0.00 0.00 0.00 0.00 0.00 0.00 0.00 0.01 0.00 0.00 0.00 0.00
0.00 0.00 0.00 0.00 0.00 0.00 0.00 0.00 0.00 0.00 0.00 0.00 0.00 0.00 0.00 0.00 0.00 0.00 0.00 0.00 0.00 0.00 0.00 0.00 0.00 0.00 0.00 0.00 0.00 0.00 0.00 0.00 0.00 0.00 0.00 0.00 0.00 0.00 0.00 0.01 0.01 0.01 0.01 0.01
0.00 0.00 0.00 0.00 0.00 0.00 0.00 0.00 0.00 0.00 0.00 0.00 0.00 0.00 0.00 0.00 0.00 0.00 0.00 0.00 0.00 0.00 0.00 0.00 0.00 0.00 0.00 0.00 0.00 0.00 0.00 0.00 0.00 0.00 0.00 0.00 0.00 0.00 0.00 0.01 0.01 0.01 0.01 0.01
0.00 0.00 0.00 0.00 0.00 0.00 0.00 0.00 0.00 0.00 0.00 0.00 0.00 0.00 0.00 0.00 0.00 0.00 0.00 0.00 0.00 0.00 0.00 0.00 0.00 0.00 0.00 0.00 0.00 0.00 0.00 0.00 0.00 0.00 0.00 0.00 0.00 0.00 0.00 0.01 0.01 0.01 0.01 0.01
0.00 0.00 0.00 0.00 0.00 0.00 0.00 0.00 0.00 0.00 0.00 0.00 0.00 0.00 0.00 0.00 0.00 0.00 0.00 0.00 0.00 0.00 0.00 0.00 0.00 0.00 0.00 0.00 0.00 0.00 0.00 0.00 0.00 0.00 0.00 0.00 0.00 0.00 0.00 0.00 0.01 0.01 0.01 0.01
0.00 0.00 0.00 0.00 0.00 0.00 0.00 0.00 0.00 0.00 0.00 0.00 0.00 0.00 0.00 0.00 0.00 0.00 0.00 0.00 0.00 0.00 0.00 0.00 0.00 0.00 0.00 0.00 0.00 0.00 0.00 0.00 0.00 0.00 0.00 0.00 0.00 0.00 0.00 0.01 0.01 0.01 0.01 0.01
0.00 0.00 0.00 0.00 0.00 0.00 0.00 0.00 0.00 0.00 0.00 0.00 0.00 0.00 0.00 0.00 0.00 0.00 0.00 0.00 0.00 0.00 0.00 0.00 0.00 0.00 0.00 0.00 0.00 0.00 0.00 0.00 0.00 0.00 0.00 0.00 0.00 0.00 0.01 0.01 0.02 0.02 0.02 0.02
0.00 0.00 0.00 0.00 0.00 0.00 0.00 0.00 0.00 0.00 0.00 0.00 0.00 0.00 0.00 0.00 0.00 0.00 0.00 0.00 0.00 0.00 0.00 0.00 0.00 0.00 0.00 0.00 0.00 0.00 0.00 0.00 0.00 0.00 0.00 0.00 0.01 0.01 0.01 0.01 0.01 0.02 0.03 0.03
0.00 0.00 0.00 0.00 0.00 0.00 0.00 0.00 0.00 0.00 0.00 0.00 0.00 0.00 0.00 0.00 0.00 0.00 0.00 0.00 0.00 0.00 0.00 0.00 0.00 0.00 0.00 0.00 0.00 0.00 0.00 0.00 0.01 0.01 0.01 0.01 0.01 0.01 0.01 0.01 0.01 0.02 0.03 0.04
0.00 0.00 0.00 0.00 0.00 0.00 0.00 0.00 0.00 0.00 0.00 0.00 0.00 0.00 0.00 0.00 0.00 0.00 0.00 0.00 0.00 0.00 0.00 0.00 0.00 0.00 0.00 0.00 0.00 0.00 0.01 0.01 0.01 0.01 0.01 0.01 0.01 0.01 0.01 0.01 0.02 0.03 0.04 0.05
0.00 0.00 0.00 0.00 0.00 0.00 0.00 0.00 0.00 0.00 0.00 0.00 0.00 0.00 0.00 0.00 0.00 0.00 0.00 0.00 0.00 0.00 0.00 0.00 0.00 0.00 0.00 0.00 0.00 0.01 0.01 0.01 0.01 0.01 0.01 0.01 0.01 0.01 0.01 0.01 0.02 0.03 0.04 0.06
0.00 0.00 0.00 0.00 0.00 0.00 0.00 0.00 0.00 0.00 0.00 0.00 0.00 0.00 0.00 0.00 0.00 0.00 0.00 0.00 0.00 0.00 0.00 0.00 0.00 0.00 0.00 0.00 0.01 0.01 0.01 0.01 0.01 0.01 0.01 0.01 0.01 0.01 0.01 0.02 0.02 0.02 0.03 0.05
0.00 0.00 0.00 0.00 0.00 0.00 0.00 0.00 0.00 0.00 0.00 0.00 0.00 0.00 0.00 0.00 0.00 0.00 0.00 0.00 0.00 0.00 0.00 0.00 0.00 0.00 0.00 0.00 0.01 0.01 0.01 0.02 0.02 0.02 0.02 0.02 0.01 0.01 0.01 0.02 0.02 0.02 0.03 0.04
0.00 0.00 0.00 0.00 0.00 0.00 0.00 0.00 0.00 0.00 0.00 0.00 0.00 0.00 0.00 0.00 0.00 0.00 0.00 0.00 0.00 0.00 0.00 0.00 0.00 0.00 0.00 0.01 0.01 0.02 0.02 0.02 0.02 0.02 0.02 0.02 0.02 0.02 0.02 0.02 0.02 0.03 0.03 0.04
0.00 0.00 0.00 0.00 0.00 0.00 0.00 0.00 0.00 0.00 0.00 0.00 0.00 0.00 0.00 0.00 0.00 0.00 0.00 0.00 0.00 0.00 0.00 0.00 0.00 0.00 0.01 0.02 0.02 0.02 0.02 0.02 0.02 0.02 0.02 0.02 0.02 0.02 0.02 0.03 0.03 0.03 0.03 0.04
0.00 0.00 0.00 0.00 0.00 0.00 0.00 0.00 0.00 0.00 0.00 0.00 0.00 0.00 0.00 0.00 0.00 0.00 0.00 0.00 0.00 0.00 0.00 0.00 0.00 0.01 0.02 0.01 0.01 0.01 0.02 0.02 0.03 0.03 0.03 0.03 0.03 0.03 0.03 0.03 0.03 0.03 0.03 0.04
0.00 0.00 0.00 0.00 0.00 0.00 0.00 0.00 0.00 0.00 0.00 0.00 0.00 0.00 0.00 0.00 0.00 0.00 0.00 0.00 0.00 0.00 0.00 0.00 0.00 0.01 0.01 0.01 0.01 0.01 0.02 0.02 0.03 0.03 0.03 0.03 0.04 0.04 0.05 0.05 0.05 0.04 0.04 0.04
0.00 0.00 0.00 0.00 0.00 0.00 0.00 0.00 0.00 0.00 0.00 0.00 0.00 0.00 0.00 0.00 0.00 0.00 0.00 0.00 0.00 0.00 0.00 0.00 0.00 0.00 0.01 0.01 0.01 0.01 0.02 0.03 0.03 0.04 0.04 0.04 0.04 0.04 0.05 0.05 0.06 0.06 0.06 0.05
0.00 0.00 0.00 0.00 0.00 0.00 0.00 0.00 0.00 0.00 0.00 0.00 0.00 0.00 0.00 0.00 0.00 0.00 0.00 0.00 0.00 0.00 0.00 0.00 0.00 0.00 0.00 0.01 0.01 0.02 0.02 0.03 0.03 0.03 0.03 0.04 0.04 0.04 0.05 0.05 0.06 0.07 0.08 0.06
0.00 0.00 0.00 0.00 0.00 0.00 0.00 0.00 0.00 0.00 0.00 0.00 0.00 0.00 0.00 0.00 0.00 0.00 0.00 0.00 0.00 0.01 0.00 0.00 0.00 0.00 0.01 0.01 0.01 0.02 0.03 0.03 0.03 0.04 0.04 0.04 0.03 0.04 0.06 0.07 0.07 0.09 0.09 0.08
MSLP
1015.37 1015.50 1015.69 1015.96 1016.33 1016.79 1017.32 1017.90 1018.48 1019.03 1019.50 1019.87 1020.11 1020.23 1020.24 1020.15 1019.98 1019.75 1019.48 1019.17 1018.82 1018.44 1018.02 1017.57 1017.08 1016.56 1016.03 1015.50 1014.97 1014.46 1013.97 1013.49 1013.03 1012.57 1012.10 1011.63 1011.16 1010.71 1010.28 1009.91 1009.61 1009.41 1009.32 1009.32
1015.69 1015.82 1016.00 1016.24 1016.56 1016.96 1017.42 1017.91 1018.41 1018.89 1019.30 1019.64 1019.88 1020.02 1020.06 1020.03 1019.93 1019.77 1019.56 1019.31 1019.02 1018.69 1018.32 1017.90 1017.45 1016.96 1016.47 1015.96 1015.46 1014.97 1014.48 1014.00 1013.51 1013.00 1012.47 1011.91 1011.33 1010.75 1010.20 1009.69 1009.26 1008.93 1008.72 1008.62
1015.93 1016.07 1016.23 1016.45 1016.74 1017.08 1017.47 1017.90 1018.33 1018.75 1019.12 1019.44 1019.68 1019.84 1019.93 1019.95 1019.91 1019.81 1019.66 1019.46 1019.20 1018.90 1018.55 1018.15 1017.72 1017.26 1016.78 1016.30 1015.82 1015.35 1014.87 1014.39 1013.88 1013.33 1012.75 1012.12 1011.45 1010.77 1010.10 1009.47 1008.90 1008.44 1008.10 1007.88
1016.06 1016.20 1016.36 1016.56 1016.81 1017.11 1017.46 1017.83 1018.21 1018.58 1018.94 1019.24 1019.50 1019.69 1019.83 1019.90 1019.91 1019.86 1019.75 1019.58 1019.35 1019.06 1018.71 1018.31 1017.88 1017.42 1016.95 1016.48 1016.01 1015.54 1015.07 1014.59 1014.07 1013.50 1012.88 1012.20 1011.47 1010.71 1009.94 1009.21 1008.53 1007.94 1007.47 1007.14
1016.05 1016.18 1016.34 1016.53 1016.76 1017.02 1017.33 1017.67 1018.02 1018.37 1018.72 1019.03 1019.32 1019.55 1019.73 1019.85 1019.91 1019.90 1019.82 1019.66 1019.43 1019.13 1018.77 1018.35 1017.90 1017.43 1016.95 1016.47 1016.00 1015.53 1015.06 1014.57 1014.05 1013.47 1012.83 1012.12 1011.36 1010.55 1009.73 1008.92 1008.15 1007.46 1006.88 1006.43
1015.86 1016.00 1016.15 1016.33 1016.55 1016.80 1017.09 1017.40 1017.74 1018.10 1018.45 1018.79 1019.10 1019.38 1019.60 1019.77 1019.87 1019.88 1019.81 1019.66 1019.42 1019.10 1018.71 1018.27 1017.79 1017.30 1016.80 1016.30 1015.82 1015.34 1014.87 1014.37 1013.84 1013.27 1012.63 1011.92 1011.15 1010.32 1009.47 1008.62 1007.80 1007.04 1006.38 1005.83
1015.52 1015.65 1015.81 1015.99 1016.20 1016.45 1016.73 1017.05 1017.40 1017.77 1018.14 1018.51 1018.86 1019.17 1019.43 1019.63 1019.75 1019.78 1019.71 1019.55 1019.30 1018.95 1018.54 1018.07 1017.57 1017.05 1016.52 1016.01 1015.51 1015.02 1014.53 1014.03 1013.51 1012.94 1012.31 1011.61 1010.86 1010.05 1009.21 1008.36 1007.52 1006.72 1005.99 1005.36
1015.04 1015.17 1015.33 1015.52 1015.74 1016.00 1016.31 1016.65 1017.02 1017.41 1017.81 1018.21 1018.59 1018.92 1019.21 1019.42 1019.55 1019.58 1019.51 1019.33 1019.06 1018.70 1018.26 1017.78 1017.25 1016.72 1016.18 1015.65 1015.13 1014.63 1014.13 1013.63 1013.10 1012.53 1011.92 1011.26 1010.54 1009.77 1008.96 1008.13 1007.30 1006.50 1005.74 1005.05
1014.48 1014.61 1014.77 1014.98 1015.23 1015.52 1015.86 1016.23 1016.64 1017.06 1017.50 1017.92 1018.32 1018.66 1018.95 1019.16 1019.27 1019.29 1019.20 1019.01 1018.72 1018.34 1017.90 1017.41 1016.89 1016.34 1015.80 1015.27 1014.74 1014.23 1013.72 1013.20 1012.66 1012.11 1011.51 1010.87 1010.19 1009.47 1008.71 1007.93 1007.13 1006.34 1005.57 1004.85
1013.90 1014.02 1014.20 1014.43 1014.72 1015.06 1015.45 1015.87 1016.32 1016.78 1017.24 1017.68 1018.07 1018.41 1018.68 1018.86 1018.95 1018.93 1018.82 1018.60 1018.30 1017.92 1017.48 1017.00 1016.49 1015.96 1015.42 1014.89 1014.36 1013.83 1013.31 1012.77 1012.22 1011.66 1011.07 1010.45 1009.80 1009.12 1008.42 1007.68 1006.93 1006.17 1005.42 1004.69
1013.34 1013.46 1013.66 1013.94 1014.28 1014.68 1015.12 1015.60 1016.10 1016.59 1017.06 1017.50 1017.88 1018.19 1018.41 1018.55 1018.59 1018.53 1018.38 1018.14 1017.83 1017.45 1017.03 1016.56 1016.08 1015.57 1015.06 1014.53 1014.00 1013.45 1012.90 1012.34 1011.76 1011.17 1010.57 1009.96 1009.33 1008.68 1008.02 1007.34 1006.64 1005.92 1005.19 1004.46
1012.85 1012.98 1013.22 1013.54 1013.94 1014.41 1014.91 1015.44 1015.97 1016.48 1016.96 1017.38 1017.72 1017.98 1018.15 1018.22 1018.20 1018.09 1017.91 1017.64 1017.32 1016.95 1016.55 1016.11 1015.66 1015.18 1014.68 1014.16 1013.62 1013.06 1012.47 1011.87 1011.25 1010.62 1009.99 1009.36 1008.73 1008.10 1007.46 1006.82 1006.17 1005.49 1004.80 1004.10
1012.45 1012.61 1012.88 1013.26 1013.73 1014.25 1014.81 1015.38 1015.93 1016.45 1016.90 1017.28 1017.58 1017.77 1017.87 1017.87 1017.79 1017.63 1017.40 1017.11 1016.79 1016.43 1016.05 1015.64 1015.22 1014.76 1014.28 1013.77 1013.21 1012.62 1011.99 1011.34 1010.66 1009.98 1009.30 1008.63 1007.98 1007.35 1006.74 1006.12 1005.51 1004.88 1004.22 1003.55
1012.13 1012.34 1012.67 1013.11 1013.63 1014.20 1014.80 1015.39 1015.94 1016.43 1016.85 1017.17 1017.40 1017.52 1017.54 1017.48 1017.33 1017.12 1016.85 1016.55 1016.22 1015.88 1015.52 1015.14 1014.73 1014.30 1013.83 1013.31 1012.74 1012.11 1011.44 1010.73 1009.99 1009.25 1008.52 1007.80 1007.13 1006.48 1005.87 1005.27 1004.69 1004.09 1003.48 1002.84
1011.91 1012.18 1012.57 1013.06 1013.63 1014.23 1014.84 1015.41 1015.94 1016.39 1016.74 1017.00 1017.14 1017.19 1017.14 1017.00 1016.80 1016.55 1016.26 1015.95 1015.62 1015.29 1014.94 1014.58 1014.20 1013.78 1013.31 1012.78 1012.18 1011.52 1010.81 1010.04 1009.25 1008.46 1007.67 1006.92 1006.21 1005.55 1004.93 1004.35 1003.78 1003.21 1002.63 1002.02
1011.76 1012.10 1012.56 1013.09 1013.69 1014.29 1014.88 1015.42 1015.89 1016.27 1016.54 1016.72 1016.78 1016.74 1016.63 1016.44 1016.19 1015.91 1015.61 1015.29 1014.97 1014.65 1014.32 1013.98 1013.60 1013.18 1012.71 1012.17 1011.56 1010.87 1010.12 1009.32 1008.50 1007.66 1006.84 1006.06 1005.32 1004.65 1004.02 1003.43 1002.87 1002.32 1001.76 1001.18
1011.68 1012.09 1012.60 1013.18 1013.77 1014.35 1014.89 1015.37 1015.75 1016.04 1016.23 1016.31 1016.28 1016.18 1016.00 1015.77 1015.50 1015.20 1014.89 1014.58 1014.27 1013.96 1013.64 1013.31 1012.94 1012.52 1012.04 1011.49 1010.87 1010.17 1009.41 1008.60 1007.76 1006.91 1006.08 1005.28 1004.53 1003.84 1003.20 1002.61 1002.04 1001.49 1000.94 1000.37
1011.64 1012.13 1012.68 1013.26 1013.84 1014.37 1014.84 1015.23 1015.51 1015.70 1015.78 1015.77 1015.67 1015.50 1015.28 1015.01 1014.73 1014.43 1014.12 1013.82 1013.52 1013.22 1012.90 1012.57 1012.20 1011.78 1011.31 1010.76 1010.14 1009.44 1008.69 1007.90 1007.07 1006.23 1005.41 1004.62 1003.86 1003.16 1002.51 1001.89 1001.31 1000.74 1000.18 999.60
1011.63 1012.17 1012.75 1013.32 1013.85 1014.32 1014.70 1014.98 1015.16 1015.23 1015.22 1015.12 1014.95 1014.73 1014.48 1014.19 1013.90 1013.60 1013.31 1013.02 1012.72 1012.43 1012.12 1011.78 1011.41 1010.99 1010.51 1009.97 1009.37 1008.70 1007.98 1007.22 1006.43 1005.63 1004.83 1004.05 1003.30 1002.59 1001.91 1001.26 1000.64 1000.03 999.42 998.82
1011.61 1012.19 1012.77 1013.30 1013.77 1014.16 1014.44 1014.62 1014.69 1014.67 1014.57 1014.40 1014.18 1013.92 1013.64 1013.35 1013.06 1012.77 1012.48 1012.19 1011.90 1011.60 1011.29 1010.94 1010.57 1010.15 1009.68 1009.15 1008.57 1007.94 1007.27 1006.55 1005.81 1005.05 1004.28 1003.52 1002.76 1002.03 1001.31 1000.61 999.92 999.24 998.57 997.91
1011.57 1012.15 1012.69 1013.18 1013.58 1013.87 1014.06 1014.14 1014.13 1014.02 1013.85 1013.63 1013.37 1013.09 1012.80 1012.51 1012.23 1011.94 1011.66 1011.37 1011.07 1010.76 1010.43 1010.08 1009.69 1009.26 1008.80 1008.29 1007.74 1007.15 1006.52 1005.86 1005.16 1004.44 1003.69 1002.93 1002.16 1001.39 1000.61 999.83 999.05 998.28 997.53 996.79
1011.46 1012.01 1012.51 1012.93 1013.25 1013.46 1013.56 1013.56 1013.47 1013.31 1013.10 1012.85 1012.57 1012.28 1011.99 1011.71 1011.43 1011.14 1010.86 1010.56 1010.25 1009.92 1009.57 1009.20 1008.80 1008.36 1007.90 1007.41 1006.88 1006.32 1005.73 1005.11 1004.44 1003.75 1003.01 1002.23 1001.43 1000.59 999.73 998.85 997.96 997.08 996.22 995.40
1011.28 1011.77 1012.19 1012.53 1012.77 1012.90 1012.94 1012.88 1012.75 1012.55 1012.32 1012.06 1011.78 1011.50 1011.23 1010.95 1010.67 1010.38 1010.09 1009.78 1009.45 1009.10 1008.73 1008.33 1007.90 1007.46 1007.00 1006.51 1006.00 1005.47 1004.90 1004.30 1003.65 1002.95 1002.20 1001.40 1000.53 999.61 998.65 997.66 996.65 995.65 994.69 993.78
1011.00 1011.41 1011.75 1012.00 1012.16 1012.23 1012.21 1012.12 1011.96 1011.76 1011.53 1011.28 1011.02 1010.76 1010.49 1010.23 1009.95 1009.67 1009.36 1009.03 1008.68 1008.30 1007.90 1007.48 1007.04 1006.58 1006.11 1005.63 1005.13 1004.60 1004.05 1003.45 1002.80 1002.09 1001.31 1000.46 999.53 998.52 997.46 996.36 995.24 994.13 993.06 992.07
1010.65 1010.96 1011.21 1011.38 1011.47 1011.48 1011.42 1011.31 1011.15 1010.96 1010.74 1010.51 1010.28 1010.04 1009.79 1009.53 1009.26 1008.97 1008.66 1008.31 1007.94 1007.54 1007.12 1006.67 1006.22 1005.75 1005.27 1004.79 1004.29 1003.77 1003.21 1002.62 1001.96 1001.23 1000.42 999.51 998.52 997.44 996.29 995.10 993.89 992.69 991.55 990.50
1010.25 1010.46 1010.61 1010.70 1010.73 1010.70 1010.61 1010.49 1010.33 1010.15 1009.96 1009.76 1009.55 1009.33 1009.10 1008.85 1008.58 1008.29 1007.96 1007.60 1007.22 1006.80 1006.36 1005.91 1005.44 1004.97 1004.50 1004.02 1003.52 1003.00 1002.45 1001.86 1001.19 1000.45 999.62 998.68 997.65 996.53 995.34 994.09 992.83 991.58 990.40 989.33
1009.84 1009.95 1010.02 1010.04 1010.01 1009.93 1009.83 1009.69 1009.54 1009.38 1009.21 1009.03 1008.84 1008.63 1008.41 1008.17 1007.90 1007.60 1007.26 1006.90 1006.50 1006.08 1005.64 1005.19 1004.73 1004.26 1003.80 1003.33 1002.84 1002.34 1001.81 1001.22 1000.57 999.84 999.01 998.09 997.06 995.94 994.75 993.52 992.26 991.03 989.86 988.81
Thickness
5724 5722 5722 5717 5715 5715 5718 5719 5715 5709 5704 5699 5697 5695 5694 5695 5695 5695 5695 5696 5696 5697 5697 5698 5699 5699 5699 5699 5699 5699 5698 5696 5696 5696 5695 5693 5692 5691 5690 5689 5688 5687 5686 5684
5716 5716 5716 5711 5711 5711 5709 5710 5709 5704 5699 5701 5698 5695 5693 5692 5690 5689 5689 5689 5690 5691 5691 5691 5692 5692 5692 5692 5692 5692 5690 5690 5689 5689 5688 5686 5686 5686 5686 5685 5684 5683 5682 5681
5715 5712 5712 5707 5711 5709 5707 5708 5707 5700 5700 5696 5691 5688 5687 5685 5684 5683 5682 5682 5683 5684 5684 5684 5685 5685 5684 5684 5684 5683 5682 5682 5681 5681 5680 5680 5680 5679 5679 5679 5680 5679 5679 5678
5714 5707 5696 5709 5712 5709 5704 5701 5701 5698 5695 5691 5688 5686 5684 5681 5679 5677 5676 5676 5676 5677 5677 5677 5677 5676 5676 5675 5675 5674 5673 5672 5672 5672 5671 5672 5672 5671 5672 5674 5675 5674 5675 5675
5710 5704 5704 5702 5704 5703 5699 5695 5696 5693 5689 5687 5685 5683 5680 5676 5673 5670 5668 5668 5668 5668 5669 5668 5667 5666 5666 5665 5664 5663 5661 5661 5662 5662 5662 5662 5663 5664 5665 5666 5668 5669 5670 5671
5704 5697 5697 5707 5706 5704 5699 5690 5693 5690 5685 5681 5679 5676 5674 5670 5666 5663 5661 5659 5659 5659 5659 5657 5656 5656 5655 5654 5653 5651 5649 5649 5650 5651 5651 5652 5654 5656 5657 5658 5659 5662 5664 5666
5700 5699 5706 5701 5698 5696 5685 5693 5690 5686 5682 5677 5674 5672 5667 5663 5659 5656 5653 5651 5650 5649 5647 5646 5645 5644 5643 5642 5641 5639 5639 5638 5638 5638 5639 5641 5643 5645 5647 5648 5650 5653 5656 5659
5697 5693 5695 5693 5691 5690 5692 5690 5685 5680 5676 5671 5667 5662 5658 5654 5650 5648 5645 5642 5640 5638 5637 5635 5634 5633 5632 5630 5629 5628 5627 5626 5626 5627 5627 5630 5630 5632 5635 5637 5639 5643 5646 5650
5698 5695 5692 5691 5690 5688 5686 5682 5677 5673 5668 5663 5657 5653 5649 5645 5642 5639 5636 5633 5630 5628 5626 5625 5624 5621 5619 5618 5617 5616 5615 5614 5614 5615 5616 5617 5618 5620 5623 5624 5627 5632 5636 5639
5685 5686 5683 5681 5680 5677 5675 5672 5668 5665 5659 5654 5649 5645 5640 5636 5633 5629 5626 5623 5620 5618 5616 5614 5612 5610 5608 5606 5604 5603 5602 5602 5602 5603 5604 5604 5604 5607 5610 5613 5615 5618 5623 5627
5678 5678 5673 5672 5671 5669 5665 5662 5658 5654 5650 5645 5640 5635 5631 5627 5624 5620 5616 5614 5610 5607 5604 5603 5601 5599 5596 5594 5592 5591 5591 5590 5589 5589 5589 5590 5592 5594 5596 5600 5601 5602 5608 5614
5675 5677 5673 5668 5665 5660 5654 5650 5647 5643 5638 5635 5631 5626 5622 5618 5614 5610 5607 5603 5600 5597 5593 5592 5590 5587 5584 5581 5579 5578 5578 5577 5576 5575 5576 5577 5579 5583 5586 5586 5588 5589 5592 5597
5671 5667 5664 5659 5654 5650 5645 5642 5638 5633 5629 5624 5620 5616 5611 5607 5603 5599 5595 5592 5589 5586 5582 5580 5577 5575 5572 5570 5567 5565 5564 5564 5563 5563 5563 5564 5566 5568 5573 5577 5578 5580 5583 5586
5656 5652 5648 5646 5642 5639 5635 5631 5627 5623 5619 5614 5610 5605 5600 5596 5592 5588 5584 5581 5577 5574 5571 5568 5565 5562 5560 5557 5555 5554 5553 5552 5551 5550 5550 5551 5553 5555 5558 5563 5568 5573 5575 5576
5644 5642 5640 5636 5632 5627 5624 5620 5615 5611 5607 5603 5598 5593 5589 5585 5581 5577 5573 5569 5566 5562 5559 5557 5554 5551 5548 5546 5544 5543 5542 5541 5540 5538 5538 5539 5541 5543 5546 5550 5554 5560 5565 5568
5634 5630 5627 5623 5619 5616 5612 5608 5604 5601 5597 5592 5587 5583 5579 5574 5569 5565 5561 5557 5554 5551 5548 5545 5542 5540 5537 5534 5533 5532 5532 5529 5527 5527 5528 5530 5531 5533 5535 5538 5543 5548 5552 5557
5622 5619 5615 5612 5609 5605 5602 5598 5594 5591 5587 5582 5577 5573 5568 5563 5559 5555 5551 5547 5543 5540 5536 5533 5531 5528 5526 5523 5522 5522 5521 5521 5518 5519 5520 5521 5522 5523 5525 5528 5532 5537 5541 5545
5616 5612 5609 5605 5600 5595 5591 5588 5584 5580 5575 5571 5565 5560 5556 5552 5549 5545 5542 5538 5534 5530 5527 5523 5520 5516 5514 5513 5511 5511 5510 5510 5510 5510 5510 5511 5512 5513 5515 5518 5521 5525 5530 5534
5602 5599 5596 5592 5589 5585 5581 5576 5572 5568 5563 5558 5553 5549 5545 5541 5538 5534 5530 5526 5523 5520 5518 5514 5508 5505 5505 5504 5500 5499 5499 5500 5500 5501 5501 5501 5502 5504 5506 5508 5511 5515 5519 5524
5589 5586 5583 5579 5576 5572 5568 5564 5560 5555 5550 5546 5541 5537 5534 5530 5526 5522 5519 5516 5512 5508 5505 5502 5498 5497 5496 5494 5489 5489 5489 5489 5490 5491 5492 5493 5494 5496 5497 5499 5502 5506 5510 5514
5576 5573 5569 5566 5563 5559 5555 5552 5547 5543 5538 5533 5529 5525 5522 5519 5515 5511 5508 5506 5504 5498 5494 5490 5488 5487 5485 5483 5479 5480 5480 5480 5481 5482 5484 5485 5487 5488 5489 5491 5493 5497 5501 5505
5563 5560 5557 5553 5550 5547 5544 5540 5536 5531 5526 5521 5517 5514 5511 5508 5505 5501 5498 5494 5492 5487 5483 5482 5480 5477 5474 5470 5471 5472 5473 5473 5474 5475 5476 5477 5478 5480 5481 5483 5485 5488 5492 5496
5550 5547 5544 5541 5539 5536 5531 5527 5523 5519 5515 5510 5507 5503 5500 5497 5493 5490 5490 5487 5482 5477 5473 5472 5469 5465 5462 5462 5465 5466 5467 5467 5467 5467 5468 5469 5471 5472 5474 5475 5477 5480 5483 5488
5537 5534 5531 5528 5525 5522 5519 5516 5512 5508 5504 5499 5496 5492 5488 5486 5484 5481 5478 5475 5470 5465 5464 5463 5458 5456 5454 5456 5459 5460 5460 5460 5460 5460 5461 5462 5464 5465 5466 5467 5469 5472 5475 5479
5522 5520 5517 5514 5511 5509 5507 5504 5500 5497 5493 5490 5487 5483 5479 5475 5473 5471 5468 5465 5461 5456 5455 5455 5452 5449 5449 5451 5451 5452 5453 5453 5453 5453 5454 5455 5456 5457 5459 5460 5462 5465 5468 5472
5508 5506 5503 5501 5499 5495 5493 5491 5488 5486 5483 5480 5478 5474 5470 5466 5462 5459 5456 5454 5452 5448 5447 5446 5446 5444 5444 5444 5444 5444 5445 5446 5447 5448 5448 5449 5450 5451 5452 5454 5456 5459 5462 5467
5493 5492 5489 5488 5486 5483 5480 5478 5476 5474 5471 5468 5466 5463 5459 5455 5452 5450 5447 5446 5444 5442 5440 5439 5438 5437 5437 5437 5437 5438 5438 5439 5440 5441 5441 5442 5443 5445 5447 5449 5451 5454 5458 5463